TimeEST,TemperatureF,Dew PointF,Humidity,Sea Level PressureIn,VisibilityMPH,Wind Direction,Wind SpeedMPH,Gust SpeedMPH,PrecipitationIn,Events,Conditions,WindDirDegrees,DateUTC
12:16 AM,14.0,12.2,93,30.64,2.5,Calm,Calm,-,N/A,Snow,Light Snow,0,2008-01-03 05:16:00
12:34 AM,14.0,12.2,93,30.63,3.0,SW,3.5,-,N/A,Snow,Light Snow,220,2008-01-03 05:34:00
12:55 AM,14.0,12.2,93,30.63,3.0,SW,3.5,-,N/A,Snow,Light Snow,220,2008-01-03 05:55:00
1:14 AM,14.0,12.2,93,30.63,4.0,Calm,Calm,-,N/A,Snow,Light Snow,0,2008-01-03 06:14:00
1:34 AM,14.0,12.2,93,30.62,4.0,South,4.6,-,N/A,Snow,Light Snow,190,2008-01-03 06:34:00
1:55 AM,12.2,8.6,85,30.63,7.0,Calm,Calm,-,N/A,Snow,Light Snow,0,2008-01-03 06:55:00
2:14 AM,10.4,8.6,92,30.63,7.0,Calm,Calm,-,N/A,,Overcast,0,2008-01-03 07:14:00
2:34 AM,10.4,8.6,92,30.64,7.0,Calm,Calm,-,N/A,Snow,Light Snow,0,2008-01-03 07:34:00
2:55 AM,12.2,10.4,92,30.64,7.0,Calm,Calm,-,N/A,Snow,Light Snow,0,2008-01-03 07:55:00
3:16 AM,12.2,8.6,85,30.65,7.0,South,3.5,-,N/A,Snow,Light Snow,180,2008-01-03 08:16:00
3:34 AM,10.4,8.6,92,30.65,7.0,Calm,Calm,-,N/A,Snow,Light Snow,0,2008-01-03 08:34:00
3:55 AM,10.4,8.6,92,30.65,10.0,Calm,Calm,-,N/A,,Overcast,0,2008-01-03 08:55:00
4:14 AM,10.4,8.6,92,30.65,10.0,South,3.5,-,N/A,,Overcast,190,2008-01-03 09:14:00
4:34 AM,10.4,8.6,92,30.65,10.0,South,4.6,-,N/A,,Overcast,190,2008-01-03 09:34:00
4:55 AM,12.2,10.4,92,30.65,10.0,SSW,5.8,-,N/A,,Overcast,200,2008-01-03 09:55:00
5:14 AM,12.2,8.6,85,30.66,10.0,SSW,4.6,-,N/A,,Overcast,200,2008-01-03 10:14:00
5:34 AM,10.4,6.8,85,30.66,10.0,South,3.5,-,N/A,Snow,Light Snow,190,2008-01-03 10:34:00
5:55 AM,8.6,5.0,85,30.67,10.0,South,4.6,-,N/A,Snow,Light Snow,180,2008-01-03 10:55:00
6:14 AM,8.6,5.0,85,30.67,10.0,South,6.9,-,N/A,,Scattered Clouds,190,2008-01-03 11:14:00
6:34 AM,5.0,3.2,92,30.67,7.0,South,5.8,-,N/A,,Clear,190,2008-01-03 11:34:00
7:14 AM,3.2,-0.4,85,30.68,7.0,SSW,4.6,-,N/A,,Clear,200,2008-01-03 12:14:00
7:34 AM,1.4,-0.4,92,30.68,7.0,SSW,4.6,-,N/A,,Clear,200,2008-01-03 12:34:00
7:55 AM,1.4,-0.4,92,30.68,10.0,SSW,4.6,-,N/A,,Clear,200,2008-01-03 12:55:00
8:14 AM,1.4,-2.2,85,30.69,4.0,SSW,4.6,-,N/A,Snow,Light Snow,200,2008-01-03 13:14:00
8:34 AM,-0.4,-4.0,85,30.68,3.0,SSW,4.6,-,N/A,Snow,Light Snow,200,2008-01-03 13:34:00
8:55 AM,1.4,-0.4,92,30.68,3.0,South,4.6,-,N/A,Snow,Light Snow,190,2008-01-03 13:55:00
9:14 AM,3.2,-0.4,85,30.68,5.0,South,5.8,-,N/A,,Clear,190,2008-01-03 14:14:00
9:34 AM,3.2,1.4,92,30.68,7.0,South,4.6,-,N/A,,Clear,190,2008-01-03 14:34:00
9:55 AM,5.0,1.4,85,30.69,5.0,South,5.8,-,N/A,,Clear,190,2008-01-03 14:55:00
10:14 AM,6.8,3.2,85,30.68,7.0,South,5.8,-,N/A,,Clear,190,2008-01-03 15:14:00
10:34 AM,8.6,5.0,85,30.69,7.0,South,5.8,-,N/A,,Clear,190,2008-01-03 15:34:00
10:55 AM,10.4,6.8,85,30.69,7.0,SSW,5.8,-,N/A,,Clear,200,2008-01-03 15:55:00
11:14 AM,10.4,8.6,92,30.68,10.0,South,8.1,-,N/A,,Clear,190,2008-01-03 16:14:00
11:34 AM,12.2,10.4,92,30.67,10.0,SSW,9.2,-,N/A,,Clear,210,2008-01-03 16:34:00
11:55 AM,14.0,8.6,79,30.67,10.0,SSW,13.8,-,N/A,,Clear,210,2008-01-03 16:55:00
12:14 PM,14.0,6.8,73,30.66,10.0,SSW,13.8,-,N/A,,Clear,210,2008-01-03 17:14:00
12:34 PM,14.0,6.8,73,30.66,10.0,SSW,12.7,18.4,N/A,,Clear,210,2008-01-03 17:34:00
12:55 PM,14.0,5.0,67,30.65,10.0,SSW,10.4,-,N/A,,Clear,210,2008-01-03 17:55:00
1:14 PM,14.0,5.0,67,30.64,10.0,SSW,9.2,-,N/A,,Clear,210,2008-01-03 18:14:00
1:34 PM,14.0,5.0,67,30.62,10.0,SSW,12.7,-,N/A,,Clear,210,2008-01-03 18:34:00
1:55 PM,14.0,5.0,67,30.61,10.0,South,12.7,-,N/A,,Clear,190,2008-01-03 18:55:00
2:14 PM,14.0,5.0,67,30.59,10.0,South,12.7,-,N/A,,Clear,190,2008-01-03 19:14:00
2:34 PM,14.0,5.0,67,30.59,10.0,SSW,13.8,-,N/A,,Clear,200,2008-01-03 19:34:00
2:55 PM,14.0,5.0,67,30.59,10.0,SSW,10.4,-,N/A,,Clear,210,2008-01-03 19:55:00
3:14 PM,14.0,5.0,67,30.58,10.0,SSW,10.4,-,N/A,,Clear,200,2008-01-03 20:14:00
3:34 PM,14.0,5.0,67,30.57,10.0,South,10.4,-,N/A,,Clear,190,2008-01-03 20:34:00
3:55 PM,14.0,5.0,67,30.56,10.0,South,9.2,-,N/A,,Clear,190,2008-01-03 20:55:00
4:14 PM,14.0,5.0,67,30.56,10.0,SSW,10.4,-,N/A,,Clear,200,2008-01-03 21:14:00
4:34 PM,14.0,5.0,67,30.55,10.0,SSW,8.1,-,N/A,,Clear,200,2008-01-03 21:34:00
4:55 PM,12.2,5.0,73,30.55,10.0,SSW,9.2,-,N/A,,Clear,200,2008-01-03 21:55:00
5:14 PM,12.2,5.0,73,30.54,10.0,South,9.2,-,N/A,,Clear,190,2008-01-03 22:14:00
5:34 PM,12.2,5.0,73,30.54,10.0,South,8.1,-,N/A,,Clear,190,2008-01-03 22:34:00
5:55 PM,12.2,5.0,73,30.52,10.0,South,8.1,-,N/A,,Clear,180,2008-01-03 22:55:00
6:14 PM,12.2,5.0,73,30.52,10.0,South,8.1,-,N/A,,Clear,180,2008-01-03 23:14:00
6:34 PM,12.2,6.8,79,30.50,10.0,South,9.2,-,N/A,,Clear,180,2008-01-03 23:34:00
6:55 PM,10.4,5.0,79,30.50,10.0,South,6.9,-,N/A,,Clear,180,2008-01-03 23:55:00
7:14 PM,12.2,6.8,79,30.48,10.0,South,9.2,-,N/A,,Clear,180,2008-01-04 00:14:00
7:34 PM,12.2,8.6,85,30.47,10.0,South,11.5,-,N/A,,Clear,190,2008-01-04 00:34:00
7:55 PM,12.2,8.6,85,30.47,10.0,SSW,11.5,-,N/A,,Clear,200,2008-01-04 00:55:00
8:14 PM,14.0,8.6,79,30.46,10.0,SSW,11.5,-,N/A,,Clear,200,2008-01-04 01:14:00
8:34 PM,12.2,8.6,85,30.46,10.0,South,10.4,-,N/A,,Clear,190,2008-01-04 01:34:00
8:55 PM,12.2,8.6,85,30.45,10.0,South,9.2,-,N/A,,Clear,180,2008-01-04 01:55:00
9:14 PM,14.0,8.6,79,30.44,10.0,South,9.2,-,N/A,,Clear,190,2008-01-04 02:14:00
9:34 PM,12.2,8.6,85,30.44,10.0,SSW,8.1,-,N/A,,Clear,200,2008-01-04 02:34:00
9:55 PM,12.2,8.6,85,30.44,10.0,SSW,6.9,-,N/A,,Clear,200,2008-01-04 02:55:00
10:14 PM,12.2,8.6,85,30.44,10.0,SSW,8.1,-,N/A,,Clear,200,2008-01-04 03:14:00
10:34 PM,14.0,10.4,86,30.43,10.0,SSW,10.4,-,N/A,,Clear,210,2008-01-04 03:34:00
10:55 PM,17.6,12.2,79,30.43,10.0,SSW,11.5,-,N/A,,Clear,210,2008-01-04 03:55:00
11:14 PM,17.6,12.2,79,30.42,10.0,SSW,11.5,-,N/A,,Clear,210,2008-01-04 04:14:00
11:34 PM,17.6,12.2,79,30.42,10.0,SSW,11.5,-,N/A,,Clear,210,2008-01-04 04:34:00
11:55 PM,17.6,12.2,79,30.41,10.0,SSW,15.0,-,N/A,,Clear,210,2008-01-04 04:55:00